Regional Weather Roundup
Issued by NWS Sioux Falls, SD

Home | Current Version | Previous Version | Graphics & Text | Print | Product List | Glossary Off
Versions: 1 2 3 4 5 6 7 8 9 10 11 12 13 14 15 16 17 18 19 20 21 22 23 24 25 26 27 28 29 30 31 32 33 34 35 36 37 38 39 40 41 42 43 44 45 46 47 48 49 50

000
ASUS43 KFSD 190102
RWRFSD

WEATHER ROUNDUP FOR SE SOUTH DAKOTA/SW MINNESOTA/NW IOWA
NATIONAL WEATHER SERVICE SIOUX FALLS SD
800 PM CDT WED OCT 18 2017

NOTE: "FAIR" INDICATES FEW OR NO CLOUDS BELOW 12,000 FEET WITH NO
SIGNIFICANT WEATHER AND OR OBSTRUCTIONS TO VISIBILITY.


SDZ038>040-050-052>070-190200-
SOUTHEAST SOUTH DAKOTA

CITY           SKY/WX    TMP DP  RH WIND       PRES   REMARKS
BROOKINGS      CLOUDY    49  31  49 CALM      30.05
CHAMBERLAIN    CLOUDY    49  32  52 CALM      30.05S
HURON          CLEAR     46  33  60 CALM      30.04R
MADISON        FAIR      48  28  46 NW8       30.05R
MITCHELL       CLEAR     55  29  36 CALM      30.05S
SIOUX FALLS    CLOUDY    52  38  58 CALM      30.04R
WINNER         FAIR      51  33  50 SE7       30.06S
YANKTON        CLEAR     52  38  58 NW9       30.05R
$$

MNZ071-072-080-081-089-090-097-098-190200-
SOUTHWEST MINNESOTA

CITY           SKY/WX    TMP DP  RH WIND       PRES   REMARKS
FAIRMONT       CLEAR     55  36  48 NW7       30.03R
JACKSON        CLEAR     52  32  46 W3        30.04R
MARSHALL       CLOUDY    48  32  53 W6        30.03R
MONTEVIDEO     CLOUDY    52  27  37 W3        30.02R
PIPESTONE      CLEAR     52  28  40 NW3       30.04S
REDWOOD FALLS  CLOUDY    54  24  31 NW8       30.02R
TRACY          CLOUDY    53  33  45 W3        30.03S
WORTHINGTON    CLOUDY    51  34  52 W3        30.05R
$$

IAZ001>003-012>014-020>022-031-032-NEZ013-014-SDZ071-190200-
NORTHWEST IOWA

CITY           SKY/WX    TMP DP  RH WIND       PRES   REMARKS
CHEROKEE       CLEAR     52  43  69 CALM      30.03R
DENISON        CLEAR     55  46  71 CALM      30.04R
ESTHERVILLE      N/A     53  34  48 NW8       30.02R
LE MARS        CLEAR     61  37  41 NE3       30.03R
ORANGE CITY    CLEAR     63  37  39 N8        30.04R
SHELDON        CLEAR     50  39  66 NW6       30.03R
SIOUX CITY     CLEAR     56  43  61 N6        30.02R
SPENCER        CLEAR     50  37  61 N5        30.03R
STORM LAKE     CLEAR     57  39  51 NE6       30.03R
$$

ABBREVIATIONS USED IN REMARKS
   TC - TEMPERATURE IN CELSIUS
  WCI - WIND CHILL INDEX
   HX - HEAT INDEX
  VSB - VISIBILITY




USA.gov is the U.S. government's official web portal to all federal, state and local government web resources and services.